Overview Statistics Trail Chart Weather Telemetry Raw packets
 

This is the latest recevied weather packets stored in our database for station/object K0QED. If no packets are shown the sender has not sent any weather packets the latest 10 day(s).

<< 62 63 64 65 66 67 68 >>
Time Temp. Humidity Pressure Rain* Wind** Luminosity Snow
1788191473 20° C 50% 1028.6 hPa 0 mm - 154 W/m² -
1788191169 20° C 46% 1028.7 hPa 0 mm - 149 W/m² -
1788190868 20° C 47% 1028.7 hPa 0 mm - 150 W/m² -
1788190567 20° C 55% 1028.6 hPa 0 mm - 169 W/m² -
1788190265 19.44° C 54% 1028.4 hPa 0 mm - 163 W/m² -
1788189960 18.89° C 55% 1028.6 hPa 0 mm - 140 W/m² -
1788189655 18.89° C 62% 1028.4 hPa 0 mm - 138 W/m² -
1788189354 18.33° C 60% 1028.4 hPa 0 mm - 137 W/m² -
1788189049 17.78° C 65% 1028.1 hPa 0 mm - 133 W/m² -
1788188744 17.78° C 62% 1028.4 hPa 0 mm - 127 W/m² -
1788188440 17.22° C 67% 1028.5 hPa 0 mm - 113 W/m² -
1788188134 17.22° C 73% 1028.2 hPa 0 mm - 101 W/m² -
1788187831 16.67° C 75% 1028.4 hPa 0 mm - 102 W/m² -
1788187526 16.67° C 73% 1028.4 hPa 0 mm - 102 W/m² -
1788187221 16.11° C 69% 1028.4 hPa 0 mm - 101 W/m² -
1788186916 16.11° C 73% 1028.2 hPa 0 mm - 104 W/m² -
1788186611 15.56° C 70% 1028.4 hPa 0 mm - 101 W/m² -
1788186308 15.56° C 72% 1028.4 hPa 0 mm - 93 W/m² -
1788186003 15° C 74% 1028.1 hPa 0 mm - 86 W/m² -
1788185696 14.44° C 77% 1028.4 hPa 0 mm - 79 W/m² -
1788185391 13.89° C 80% 1028.1 hPa 0 mm - 77 W/m² -
1788185085 13.89° C 81% 1028 hPa 0 mm - 70 W/m² -
1788184799 13.33° C 78% 1028.1 hPa 0 mm - 63 W/m² -
1788184483 13.33° C 80% 1028.2 hPa 0 mm - 58 W/m² -
1788184178 13.33° C 80% 1028.2 hPa 0 mm - 50 W/m² -

* Rain latest hour (hover to see other rain measurements)
** Current wind speed in m/s (hover to see current wind gust speed)